Location: Newark
(41.8083°N, 72.2500°W)
Time: 21:10:17
(UTC+00:00)

Courier 1B - Pass Details

Date: 08 December 2021
Orbit: 962 x 1209 km, 28.3° (Epoch: 19 January)

Event Time Altitude Azimuth Distance (km) Brightness Sun altitude
Rises 22:53:10 0° 256° (WSW) 4,049 12.5 -17.1°
Reaches altitude 10° 22:56:39 10° 243° (WSW) 3,052 11.3 -17.7°
Maximum altitude 23:02:22 24° 193° (SSW) 2,135 9.6 -18.8°
Drops below altitude 10° 23:07:51 10° 143° (SE) 2,911 9.8 -19.8°
Enters shadow 23:09:15 - 136° (SE) 3,289 10.0 -20.0°
Sets 23:11:04 0° 130° (SE) 3,821 - -20.3°
